Вернуться в каталог

CUBESAT XI 4

АктивенЛюбительское радиоSSO
NORAD 27848·PAYLOAD·🇯🇵 Japan

Запущен Jun 30, 2003 с Plesetsk Cosmodrome

Loading…

Ближайшие Пролёты (ближайшие 24 часа)

TLE

СвежийSource: Space-Track

Эпоха: Sep 14, 2026, 11:52 UTC

1 27848U 03031J   26257.49476793  .00000148  00000-0  84046-4 0  9996
2 27848  98.6802 264.5861 0008535 310.1780  49.8651 14.23659826204080

Отслеживайте CUBESAT XI 4 в реальном времени с AllMySat

Download on the App Store